STARLINK-11596, 64321

Orbit data source: Space-Track

STARLINK-11596, 64321 is a payload satellite owned by SpaceX/Seattle (US) in LEO that was launched on Tue, 10 Jun 2025 UTC via an FALCON 9 launch vehicle from the Air Force Eastern Test Range (AFETR). Payload-class satellites include a variety of spacecraft equipped with specific instruments for various scientific and technological missions. These include communications satellites like Starlink; space stations such as the ISS; scientific satellites like the Hubble; Earth observation satellites from companies like Planet Labs, Umbra, and HawkEye 360; GPS; miniature CubeSats for education and research; and military/defense satellites.

Loading next visibility...
Identifier
64321, 2025-124E
Orbit
LEO
Last TLE update
11 hours ago
Origin
Manufacturer
SpaceX/Seattle
Mission
Operational spacecraft
Bus & Motor
STARLINK V2M, Unknown motor
Mass
730 kg wet, ~700 kg dry
Launch date (UTC)
2025-06-10 (3 weeks ago)
Launch vehicle
FALCON 9
Launch site
Air Force Eastern Test Range (AFETR)
Object type
Payload
Rocket body
Debris
Shape & HBR
Unknown
Radar Cross Section
Large (>1 m²)

Expand to show TLE details & history

TLE from 11 hours ago
0 STARLINK-11596
1 64321U 25124E   25182.13367709  .00117668  00000-0  66881-3 0  9995
2 64321  43.0004 106.1961 0001662 275.3591  84.7090 15.77886789  4277
Epoch: 2025-07-01T03:12Z
TLE epoch observation values (Epoch: 2025-07-01T03:12:29.7Z)
Latitude
0.00001°
Longitude
138.63886°
Altitude
336.097 km
Speed
7.709 km/s
True Right ascension
07h 04m 47s
True Declination
0° 00' 00"
Sunlit
Object was in daylight at epoch
Visualization orbit readout
Latitude
12.56862°
Longitude
149.67173°
Altitude
335.333 km
Speed
7.71 km/s
Apparent Right ascension
10h 10m 41s
Apparent Declination
-17° 15' 34"
Sunlit
Object is in daylight
Visualization observer readout
Local Sidereal Time
01:34:13
Azimuth
77.884° E
Elevation
-40.731°
Doppler factor
1
Orbital elements
Apogee altitude
339.533 km
Perigee altitude
337.3 km
Semi-major axis
6,716.553 km
Eccentricity
0.00017
Inclination
43.0004°
RAAN
106.1961°
Arg. of periapsis
275.3591°
True anomaly
Unknown
Mean anomaly
84.709°
Eccentric anomaly
Unknown
Mean motion
3.94297 °/min
Orbital period
91.3 mins
BSTAR
0.00066881
Loading maneuver chart data...
Loading SW <> Apogee altitude chart data...
Loading historical data...
Loading historical data...
Loading historical data...
Loading historical data...
Loading historical data...
Loading historical data...
Loading historical data...

STARLINK-11596 Visibility forecast

Observer location: undefined°, undefined°

Span
Click to sort rows by Start time (UTC) header in descending order
Start Az.
Max El. time (UTC)
Max El. Az.
Max El.
End time (UTC)
End Az.
4 mins2025-07-01 23:13:12.124Z249.086° W2025-07-01 23:15:12.124Z80.554° E43.203°2025-07-01 23:17:12.124Z72.428° E
4 mins2025-07-02 00:49:12.124Z296.256° NW2025-07-02 00:51:12.124Z28.201° NE31.245°2025-07-02 00:53:12.124Z70.09° E
4 mins2025-07-02 02:25:12.124Z296.498° NW2025-07-02 02:26:12.124Z322.406° NNW40.509°2025-07-02 02:29:12.124Z99.793° ESE
|